[[{"header":{"parameterUnit":"m.s-1","parameterCategory":1,"la1":30.2991,"la2":30.254,"lo1":-89.0895,"lo2":-89.0444,"dy":0.0017,"dx":0.0017,"nx":28,"ny":28,"refTime":"2025-01-03T09:00:00:Z","depth":0,"parameterNumber":2,"parameterNumberName":"U-component_of_WINDS"},"data":[0,0,0,0,0,0,0,0,0,0,0,0,0,0,0,0,0,0,0,0,0,0,0,0,0,0,0,0,0,0,0,0,0,0,0,0,0,0,0,0,0,0,0,0,0,0,0,0,0,0,0,0,0,0,0,0,0,0,-4.9467,-4.9468,0,-4.9538,-4.9539,-4.954,-4.9498,-4.9496,-4.9494,-4.9492,-4.9565,-4.9569,-4.9573,0,0,0,0,0,0,0,0,0,0,0,0,0,-4.9295,-4.9298,-4.9467,-4.9468,-4.9469,-4.9538,-4.9539,-4.954,-4.9498,-4.9496,-4.9494,-4.9491,-4.9564,-4.9569,-4.9573,0,0,0,0,0,0,0,0,0,0,0,0,0,-4.9368,-4.9299,-4.9467,-4.9456,-4.9456,-4.9538,-4.9539,-4.9541,-4.9499,-4.9496,-4.9493,-4.949,-4.9563,-4.9568,-4.9574,-4.9671,0,0,-4.9592,-4.9594,0,0,0,0,0,0,0,0,-4.9364,-4.9375,-4.9457,-4.9457,-4.9457,-4.9506,-4.9505,-4.9584,-4.95,-4.9483,-4.9492,-4.9489,-4.9548,-4.9555,-4.9575,-4.9674,-4.9677,-4.9592,-4.9596,-4.9598,-4.96,0,0,0,0,0,0,0,-4.9359,-4.9371,-4.9495,-4.9458,-4.9458,-4.9448,-4.9455,-4.952,-4.9532,-4.9484,-4.9481,-4.949,-4.9548,-4.957,-4.9576,-4.9678,-4.9592,-4.9597,-4.9601,-4.9603,-4.9859,-4.9862,0,0,0,0,0,0,-4.9355,-4.9367,-4.9493,-4.9497,-4.9402,-4.9454,-4.9462,-4.9494,-4.9531,-4.9534,-4.9493,-4.9488,-4.9561,-4.957,-4.9579,-4.9693,-4.9598,-4.9603,-4.9607,-4.9856,-4.986,-4.9864,0,0,0,0,0,0,-4.9351,-4.9366,-4.949,-4.9432,-4.9447,-4.946,-4.9496,-4.9497,-4.9518,-4.9537,-4.9539,-4.9513,-4.9559,-4.9571,-4.9648,-4.9695,-4.9606,-4.9611,-4.9852,-4.9857,-4.9862,-4.9923,0,0,0,0,0,0,-4.9347,-4.9365,-4.9402,-4.9433,-4.945,-4.9558,-4.9499,-4.95,-4.9528,-4.9523,-4.9557,-4.956,-4.9558,-4.964,-4.9654,-4.9701,-4.9616,-4.9848,-4.9854,-4.986,-4.9916,-4.9929,-4.994,0,0,0,0,0,-4.9341,-4.9416,-4.9404,-4.9419,-4.9496,-4.956,-4.957,-4.9566,-4.9532,-4.9569,-4.9582,-4.9558,-4.9688,-4.9648,-4.9663,-4.9713,-4.9845,-4.9852,-4.986,-4.9911,-4.9927,-4.994,0,0,0,0,0,0,-4.939,-4.942,-4.9407,-4.9495,-4.9525,-4.9553,-4.9599,-4.9583,-4.9624,-4.9617,-4.9611,-4.9619,-4.9699,-4.9715,-4.9669,-4.9809,-4.9761,-4.9772,-4.9795,-4.981,-4.9821,-4.9815,-4.9621,0,0,0,0,0,-4.9412,-4.9462,-4.9485,-4.9561,-4.9577,-4.9586,-4.9614,-4.9608,-4.964,-4.9652,-4.967,-4.9702,-4.975,-4.9781,-4.9826,-4.992,-4.9926,-4.9962,-4.9974,-4.9983,-4.9992,-5.0041,-5.0057,-4.9888,-4.9888,-4.9888,0,0,-4.9456,-4.9478,-4.951,-4.9571,-4.9594,-4.9646,-4.9597,-4.9653,-4.9691,-4.9661,-4.9734,-4.9749,-4.9784,-4.9869,-4.9908,-4.9884,-5.0041,-4.9993,-5.0001,-5.0004,-5.0051,-5.0067,-5.0081,-4.9894,-4.9893,-4.9892,0,0,-4.9562,-4.9585,-4.9649,-4.9674,-4.971,-4.9715,-4.9731,-4.9762,-4.977,-4.9844,-4.9822,-4.9868,-4.9951,-4.9976,-5.0,-5.0118,-5.0098,-5.0133,-5.0193,-5.0242,-5.0255,-5.0266,-5.0306,-5.0321,-5.0142,-5.0143,-5.0143,0,-4.9612,-4.9688,-4.9685,-4.9743,-4.977,-4.9746,-4.9811,-4.9835,-4.9884,-4.9904,-4.9877,-4.9981,-5.0003,-5.0093,-5.0122,-5.0143,-5.016,-5.0127,-5.0253,-5.0265,-5.0276,-5.0314,-5.0329,-5.0146,-5.0146,-5.0146,-5.0145,0,-4.9748,-4.9801,-4.9849,-4.9897,-4.993,-4.9991,-4.9997,-5.0031,-5.0024,-5.0033,-5.0108,-5.0134,-5.0183,-5.0205,-5.0199,-5.0295,-5.0279,-5.0254,-5.0205,-5.0296,-5.0331,-5.0346,-5.0152,-5.0151,-5.0149,-5.0148,0,0,-4.9884,-4.993,-4.9947,-4.9968,-5.0006,-5.0048,-5.0109,-5.0157,-5.0186,-5.0222,-5.0272,-5.0343,-5.032,-5.0347,-5.0344,-5.0387,-5.0476,-5.0355,-5.0356,-5.0375,-5.0582,-5.0598,-5.0615,-5.0465,-5.0467,-5.047,-5.0578,0,-4.999,-5.0096,-5.0095,-5.0192,-5.0241,-5.022,-5.0273,-5.0303,-5.0314,-5.0357,-5.0369,-5.0418,-5.0385,-5.0401,-5.0443,-5.0456,-5.0517,-5.0449,-5.051,-5.0512,-5.0498,-5.0634,-5.0652,-5.0752,-5.0592,-5.0594,-5.0596,0,-5.0128,-5.0167,-5.0269,-5.0301,-5.0321,-5.0369,-5.0413,-5.0455,-5.0489,-5.0493,-5.0524,-5.0515,-5.0577,-5.053,-5.0615,-5.0568,-5.0594,-5.0605,-5.0608,-5.0611,-5.0557,-5.0638,-5.0785,-5.0799,-5.0618,-5.0617,-5.0615,0,-5.0214,-5.0293,-5.0364,-5.0383,-5.0422,-5.0456,-5.0474,-5.0504,-5.0533,-5.0573,-5.0591,-5.0638,-5.0663,-5.07,-5.0703,-5.0668,-5.0788,-5.0741,-5.0792,-5.0792,-5.0815,-5.0813,-5.0965,-5.0837,-5.0837,-5.0837,-5.0837,0,-5.0331,-5.0394,-5.0403,-5.0446,-5.0516,-5.0516,-5.0585,-5.06,-5.0628,-5.0673,-5.066,-5.0703,-5.0706,-5.0751,-5.0755,-5.0824,-5.0836,-5.0841,-5.084,-5.084,-5.0839,-5.0854,-5.0846,-5.0841,-5.084,-5.0839,-5.0839,0,-5.0437,-5.0446,-5.0522,-5.0553,-5.0562,-5.0612,-5.0639,-5.068,-5.069,-5.0749,-5.0762,-5.0778,-5.083,-5.0838,-5.09,-5.0902,-5.0984,-5.0978,-5.0972,-5.097,-5.102,-5.1014,-5.1184,-5.1206,-5.1067,-5.1068,-5.1069,0,-5.0509,-5.0557,-5.0593,-5.0623,-5.0643,-5.0691,-5.0721,-5.0723,-5.0754,-5.0797,-5.0833,-5.0884,-5.0924,-5.1009,-5.1026,-5.1073,-5.1066,-5.1123,-5.1073,-5.1071,-5.1064,-5.1059,-5.1063,-5.1131,-5.1133,-5.1134,-5.1135,0,-5.0636,-5.0639,-5.0682,-5.0727,-5.0763,-5.0799,-5.0832,-5.0858,-5.0865,-5.0901,-5.0954,-5.0986,-5.1049,-5.1099,-5.1146,-5.1164,-5.1151,-5.1151,-5.1165,-5.1163,-5.1157,-5.1158,-5.0995,-5.1146,-5.1145,-5.1144,-5.1144,-5.1143,-5.0726,-5.0767,-5.0798,-5.0847,-5.0873,-5.0905,-5.0945,-5.0961,-5.1005,-5.1055,-5.1055,-5.1113,-5.1146,-5.1207,-5.123,-5.1275,-5.1257,-5.1277,-5.1282,-5.1286,-5.129,-5.1153,-5.1284,-5.1284,-5.1284,-5.1283,-5.1283,0,-5.0849,-5.0869,-5.0914,-5.0961,-5.1,-5.0985,-5.1022,-5.1055,-5.1106,-5.1138,-5.1178,-5.1239,-5.1288,-5.131,-5.1358,-5.1391,-5.1386,-5.1403,-5.1399,-5.1403,-5.1305,-5.1287,-5.1406,-5.1406,-5.1406,-5.1406,-5.1406,-5.1406,-5.0918,-5.0986,-5.0992,-5.1073,-5.1093,-5.1149,-5.1171,-5.12,-5.1226,-5.1294,-5.1335,-5.1349,-5.1377,-5.1427,-5.1472,-5.1477,-5.1494,-5.1514,-5.1516,-5.1423,-5.141,-5.1398,-5.1381,-5.1519,-5.1519,-5.161,-5.1611,-5.1612]},{"header":{"parameterUnit":"m.s-1","parameterCategory":1,"la1":30.2991,"la2":30.254,"lo1":-89.0895,"lo2":-89.0444,"dy":0.0017,"dx":0.0017,"nx":28,"ny":28,"refTime":"2025-01-03T09:00:00:Z","depth":0,"parameterNumber":3,"parameterNumberName":"V-component_of_WINDS"},"data":[0,0,0,0,0,0,0,0,0,0,0,0,0,0,0,0,0,0,0,0,0,0,0,0,0,0,0,0,0,0,0,0,0,0,0,0,0,0,0,0,0,0,0,0,0,0,0,0,0,0,0,0,0,0,0,0,0,0,2.3492,2.3493,0,2.3598,2.3599,2.36,2.3529,2.3525,2.3522,2.3519,2.3631,2.3637,2.3643,0,0,0,0,0,0,0,0,0,0,0,0,0,2.3235,2.324,2.3492,2.3494,2.3495,2.3598,2.3599,2.3601,2.3529,2.3525,2.3521,2.3517,2.3629,2.3636,2.3643,0,0,0,0,0,0,0,0,0,0,0,0,0,2.3344,2.3241,2.3492,2.3471,2.3471,2.3597,2.3599,2.3601,2.353,2.3525,2.352,2.3516,2.3626,2.3635,2.3644,2.3798,0,0,2.3672,2.3676,0,0,0,0,0,0,0,0,2.3338,2.3354,2.3473,2.3473,2.3472,2.3545,2.3549,2.3667,2.3531,2.3508,2.3519,2.3513,2.3606,2.3617,2.3647,2.3803,2.3808,2.3672,2.3678,2.3682,2.3684,0,0,0,0,0,0,0,2.3331,2.3349,2.3534,2.3475,2.3475,2.3459,2.3469,2.3571,2.3583,2.3509,2.3504,2.3518,2.3605,2.3639,2.365,2.381,2.3672,2.368,2.3686,2.3689,2.4101,2.4106,0,0,0,0,0,0,2.3324,2.3343,2.3531,2.3537,2.3392,2.3468,2.3479,2.3527,2.3582,2.3586,2.3522,2.3514,2.3626,2.3639,2.3653,2.3839,2.3682,2.369,2.3695,2.4096,2.4102,2.4108,0,0,0,0,0,0,2.3319,2.3341,2.3526,2.3439,2.3461,2.3477,2.3531,2.3531,2.3565,2.3591,2.3594,2.3553,2.3623,2.364,2.3763,2.3842,2.3694,2.3703,2.4089,2.4098,2.4105,2.4211,0,0,0,0,0,0,2.3312,2.334,2.3397,2.3441,2.3466,2.3633,2.3536,2.3537,2.358,2.3571,2.3622,2.3625,2.362,2.375,2.3772,2.3852,2.371,2.4082,2.4093,2.4103,2.4201,2.4222,2.4241,0,0,0,0,0,2.3303,2.3422,2.34,2.3423,2.3537,2.3638,2.3652,2.3643,2.3587,2.3645,2.3663,2.3624,2.383,2.3763,2.3787,2.3871,2.4077,2.409,2.4102,2.4192,2.4218,2.424,0,0,0,0,0,0,2.3388,2.3428,2.3403,2.354,2.3586,2.3625,2.3698,2.367,2.3733,2.3722,2.3709,2.3721,2.385,2.3873,2.3798,2.4025,2.3945,2.3963,2.4005,2.403,2.405,2.4042,2.3717,0,0,0,0,0,2.3423,2.3499,2.353,2.3649,2.3673,2.3682,2.3725,2.3714,2.3762,2.3781,2.3807,2.3856,2.3932,2.3982,2.4053,2.4204,2.4216,2.4274,2.4294,2.431,2.4326,2.4411,2.4438,2.4149,2.4149,2.4149,0,0,2.3495,2.3526,2.3575,2.3667,2.3701,2.3783,2.3699,2.3788,2.3849,2.3795,2.3912,2.3934,2.3988,2.4126,2.4188,2.4149,2.4408,2.4326,2.4338,2.4346,2.4426,2.4454,2.4478,2.4158,2.4156,2.4155,0,0,2.3669,2.37,2.3803,2.3839,2.3892,2.3898,2.3923,2.3968,2.398,2.4097,2.4059,2.4133,2.4263,2.4304,2.4342,2.4536,2.4504,2.456,2.4664,2.4747,2.4769,2.479,2.4861,2.4887,2.4576,2.4576,2.4576,0,2.3753,2.3873,2.3859,2.3953,2.3995,2.395,2.4056,2.4092,2.4166,2.4198,2.4153,2.4318,2.4351,2.4499,2.4547,2.4579,2.4609,2.4554,2.4767,2.4787,2.4806,2.4874,2.4901,2.4583,2.4582,2.4581,2.4581,0,2.3975,2.4059,2.4136,2.4209,2.426,2.4359,2.4363,2.4418,2.4403,2.4415,2.4538,2.4576,2.4656,2.469,2.4677,2.4839,2.4813,2.4768,2.4687,2.484,2.4904,2.493,2.4592,2.459,2.4588,2.4586,0,0,2.4203,2.4269,2.4298,2.4332,2.4389,2.4455,2.4554,2.4631,2.4679,2.4733,2.4817,2.493,2.489,2.4933,2.4924,2.4997,2.5152,2.4943,2.4944,2.4982,2.5336,2.537,2.5401,2.5131,2.5136,2.5139,2.5332,0,2.4382,2.4552,2.4545,2.4705,2.4785,2.4745,2.4832,2.4878,2.4892,2.4964,2.498,2.5062,2.5001,2.5027,2.5097,2.5118,2.5223,2.5104,2.5211,2.5215,2.52,2.5433,2.5469,2.5649,2.5357,2.5361,2.5364,0,2.4612,2.4674,2.4842,2.489,2.4923,2.5001,2.5073,2.5141,2.5194,2.52,2.525,2.5231,2.5334,2.5251,2.5395,2.5314,2.5358,2.5376,2.5382,2.5393,2.5299,2.5452,2.5706,2.5734,2.5403,2.54,2.5397,0,2.4764,2.489,2.5007,2.5037,2.5096,2.5152,2.5179,2.5227,2.5275,2.5339,2.5371,2.5447,2.5489,2.5549,2.5552,2.549,2.5698,2.5614,2.5708,2.5708,2.5753,2.5751,2.602,2.578,2.578,2.5779,2.5779,0,2.4964,2.507,2.5077,2.5149,2.5267,2.526,2.5378,2.54,2.5443,2.5521,2.5492,2.5566,2.5565,2.5642,2.5645,2.5765,2.5784,2.5793,2.5793,2.5797,2.5796,2.5825,2.5814,2.5787,2.5785,2.5784,2.5782,0,2.5154,2.5163,2.5289,2.5335,2.5349,2.5434,2.5475,2.5545,2.5558,2.5658,2.5681,2.5702,2.5792,2.58,2.5904,2.5906,2.6052,2.6038,2.6034,2.6032,2.6126,2.6118,2.6425,2.6466,2.6198,2.6201,2.6203,0,2.5281,2.5362,2.5417,2.5467,2.5497,2.5578,2.5628,2.5625,2.5678,2.5746,2.5809,2.5896,2.5964,2.6109,2.6135,2.6215,2.6204,2.6306,2.6215,2.6218,2.6208,2.6203,2.6213,2.6323,2.6326,2.6329,2.6331,0,2.5508,2.5509,2.558,2.5656,2.5716,2.5774,2.5829,2.5873,2.5877,2.5939,2.603,2.6083,2.619,2.6277,2.6357,2.6387,2.6362,2.6359,2.6385,2.639,2.6385,2.6391,2.6084,2.6352,2.635,2.6348,2.6347,2.6346,2.5671,2.5742,2.5793,2.5875,2.5916,2.5969,2.6039,2.6061,2.6136,2.6222,2.6217,2.6318,2.6373,2.6477,2.6513,2.6594,2.656,2.6598,2.6607,2.6617,2.6628,2.6372,2.6608,2.6608,2.6607,2.6607,2.6606,0,2.5898,2.5929,2.6005,2.6083,2.6149,2.6118,2.6179,2.6236,2.6325,2.6378,2.6446,2.6553,2.6638,2.6672,2.6756,2.6815,2.6805,2.6837,2.6833,2.6841,2.6652,2.6622,2.6844,2.6844,2.6843,2.6843,2.6843,2.6843,2.6023,2.6142,2.615,2.629,2.6321,2.6419,2.6457,2.6507,2.6549,2.6669,2.674,2.6761,2.6808,2.6896,2.6974,2.6982,2.7015,2.7053,2.7056,2.6878,2.6854,2.6831,2.6803,2.7059,2.706,2.7239,2.724,2.7241]}]]